sat.trackr.live / text

‹ back to catalog

ONEWEB-0587

NORAD 54654 · 2022-166N

PAYLOAD ACTIVE UNKNOWN

§ Identity

Operator
Country
UK
Launch date
2022-12-08
Launch site
AFETR
Launch vehicle
Mass (kg)
RCS (m²)

Purposes: comms

External: N2YO · Heavens-Above · Gunter

§ Orbital elements

Epoch: 2026-09-19T16:18:21.098304Z

Period
108.94 min
Inclination
87.9288°
Eccentricity
0.0001785
Mean motion
13.21826639 rev/d
Perigee alt
1,176.4 km
Apogee alt
1,179.1 km
Semi-major
7,555.9 km
B*
9.4132e-5
RAAN
225.1688°
Arg perigee
74.0736°
Mean anomaly
286.0595°
Rev number
18,416

§ Raw data

ONEWEB-05871 54654U 22166N   26262.67941086  .00000052  00000+0  94132-4 0  99992 54654  87.9288 225.1688 0001785  74.0736 286.0595 13.21826639184164

JSON: /api/v1/satellites/54654 · /tle

For live sub-satellite position, see the globe view (requires WebGL).

§ Visibility from observer

Set your observer location to see the next 7 days of passes ≥ 10°. The values pass through the URL so the page stays shareable.

No JS? Fill the form by hand. The geolocation button needs JavaScript.